Weather in Sukhotskoye

Russia / Republic of North Ossetia — Alania     43°40′29″N   44°26′36″E
temp.,
°C
wind,
m/s
gust,
m/s
humid.,
%
clouds,
%
prec.,
mm/h
press.,
hPa
HPBL,
m
24 september, fri
fri2400:00+13ne1395100 4.8 1011223
03:00+12nne3497100 11.6 1009251
06:00+12nnw3595100 9.1 1010324
09:00+12nw4692100 14.8 1012427
12:00+12wnw3584100 0.3 1014586
15:00+13w4577100 0.3 1014810
18:00+12ssw3684100 0.0 1015197
21:00+13ssw228015 0.0 101531
25 september, sat
sat2500:00+11wsw118421 0.0 101510
03:00+11sw118481 0.0 101410
06:00+12se1183100 0.0 101411
09:00+16se5863100 0.0 1012624
12:00+19ese6843100 0.0 10101178
15:00+21nne223719 0.0 10121829
18:00+14nw5116590 0.0 1015420
21:00+13nw51068100 0.2 1018926
26 september, sun
sun2600:00+12w2590100 3.1 1019311
03:00+11wsw369110 4.2 1020253
06:00+12wsw2586100 0.0 1021157
09:00+15w59635 0.0 1021931
12:00+19wnw674542 0.0 10201945
15:00+18nw455051 0.0 10191201
18:00+16sw00575 0.0 101811
21:00+14ssw45675 0.0 101775
27 september, mon
mon2700:00+13wsw34703 0.0 101568
03:00+13sw34650 0.0 101546
06:00+12wnw33594 0.0 101626
09:00+17nw686868 0.0 10161004
12:00+18nw795855 0.1 10161226
15:00+17nw61053100 0.1 10171069
18:00+15w3662100 0.0 1018280
21:00+14w2465100 0.0 1019148
28 september, tue
tue2800:00+14w2465100 0.0 1019106
03:00+13nnw236598 0.0 1019104
06:00+11nne126517 0.0 102013
09:00+15ne22515 0.0 1021575
12:00+17nne32445 0.0 10201362
15:00+18ne214386 0.0 10201767
18:00+17ene1146100 0.0 102111
21:00+16ene3553100 0.0 1021147